User: anonymous   Login
Location: Smithers
(54.7670°N, 127.1670°W)
Time: 16:15:08
(UTC-08:00)
Language:

ERBS - Orbit

View from above orbital plane
View from above orbital plane
View from above satellite
View from above satellite

Ground track
Ground track

The orbit data is extracted from the following two-line orbital elements,

1 15354U 84108B   14353.23884585  .00017240  00000-0  55952-3 0  6606
2 15354 057.0140 073.7206 0015533 163.1461 197.0108 15.32014272657945
Epoch (UTC): 19 December 2014 05:43:56
Eccentricity: 0.0015533
inclination: 57.0140°
perigee height: 459 km
apogee height: 480 km
right ascension of ascending node: 73.7206°
argument of perigee: 163.1461°
revolutions per day: 15.32014272
mean anomaly at epoch: 197.0108°
orbit number at epoch: 65794

The dashed part of the orbit path shows where the satellite is in the earth's shadow,  

DLR